Temp
60 60 60 60 59 59 59 59 59 59 59 59 59 60 60 59 59 59 59 60 60 60 60 60 60 61 67 77 86 91 77 77 89 91 91 91 89 89 84 88 91 87 90 93 96 96 95
60 60 60 59 59 59 59 59 59 59 59 59 59 59 59 59 59 59 59 59 59 59 59 59 60 60 73 75 102 99 98 92 97 94 94 95 92 94 89 89 88 92 91 92 94 95 95
59 59 59 59 59 58 59 59 59 59 59 59 59 59 59 59 59 59 59 58 58 58 59 60 61 69 79 86 102 103 99 98 101 99 95 99 99 93 92 86 94 92 85 89 91 93 91
59 59 59 59 59 58 58 58 59 59 58 59 59 58 58 58 58 59 59 58 58 59 62 62 62 74 81 101 103 100 101 99 101 101 98 100 100 93 90 94 91 85 85 77 88 91 92
59 59 59 58 58 58 57 58 58 58 58 58 58 58 58 58 58 58 58 57 59 63 62 62 68 75 83 88 93 100 102 95 97 98 98 99 95 88 90 82 79 81 73 77 82 93 90
58 58 58 58 58 57 57 57 57 57 58 58 58 57 57 57 57 57 57 57 63 62 66 78 82 79 90 89 96 98 101 99 93 93 90 88 87 81 83 80 68 75 76 79 79 88 89
58 58 58 58 58 57 57 57 57 57 57 58 58 57 57 57 57 57 62 76 76 75 79 85 87 87 92 97 98 94 99 95 94 88 79 85 79 75 80 84 84 82 79 78 85 90 86
57 57 57 57 57 57 56 56 57 57 57 57 57 57 57 57 57 56 64 82 86 89 79 93 91 91 94 97 87 92 99 86 85 78 84 82 75 84 88 86 82 80 77 77 83 88 84
57 57 57 57 56 56 56 56 56 56 57 56 56 56 57 56 56 67 86 88 97 95 79 87 92 90 91 93 87 88 93 89 84 80 82 77 82 87 83 80 78 78 75 77 77 84 86
57 57 56 56 56 56 56 56 56 56 56 56 56 56 56 55 65 94 89 96 98 94 71 79 84 89 91 93 84 97 97 90 85 80 83 81 88 83 80 78 81 72 84 82 79 76 69
56 56 56 56 56 56 55 55 56 56 56 56 56 56 56 54 72 88 91 98 97 88 57 83 86 99 95 87 89 89 98 91 80 82 82 78 81 79 77 79 84 77 84 81 79 75 73
56 56 56 56 56 55 55 55 55 55 55 55 56 56 55 74 76 95 98 97 89 68 59 77 87 84 84 88 88 90 88 93 91 83 84 82 90 85 83 86 84 85 80 79 78 74 63
55 55 55 55 55 55 55 54 55 55 55 55 55 55 56 80 86 98 97 88 68 62 80 76 79 83 83 81 83 84 81 78 75 70 71 79 81 87 87 79 84 81 73 62 60 61 60
55 55 55 55 55 55 54 54 54 54 54 55 54 53 67 86 94 96 89 76 59 75 75 82 80 81 76 81 81 81 79 75 82 78 72 67 64 75 86 80 76 77 74 64 53 57 60
55 55 55 55 55 54 54 54 54 54 54 54 53 84 83 91 95 92 80 66 70 75 80 77 80 74 75 78 78 78 78 73 73 79 67 67 62 82 84 85 83 76 71 78 67 70 65
55 55 55 55 55 54 54 54 54 54 54 54 70 81 88 94 94 85 73 63 75 80 80 79 70 76 71 75 73 75 75 79 76 80 81 73 64 79 81 84 84 79 82 67 69 53 52
54 54 55 55 54 54 54 54 54 54 53 53 72 79 88 95 92 78 67 74 79 82 80 74 74 72 74 73 74 74 74 76 78 77 80 76 70 69 78 75 72 74 59 56 68 65 54
54 54 54 55 54 54 54 54 54 53 52 66 75 73 91 94 74 77 73 77 63 78 80 77 76 75 73 74 71 73 72 70 77 77 71 75 68 61 68 79 82 79 73 71 62 58 57
54 54 54 54 54 54 54 54 54 53 52 62 71 77 91 87 68 72 77 76 77 75 75 75 73 76 77 71 65 71 74 76 76 75 67 69 66 58 62 72 78 72 74 71 72 68 59
54 54 54 54 54 54 54 54 54 53 53 60 71 70 80 81 80 71 70 71 71 76 74 75 74 76 72 69 73 68 71 75 75 74 65 68 63 60 56 62 68 66 58 53 69 60 62
54 54 54 54 54 54 54 54 54 53 53 62 73 71 70 68 71 70 71 71 69 68 74 74 70 71 69 64 67 68 72 73 74 65 70 67 58 63 66 69 70 69 69 70 67 68 61
54 54 54 54 54 54 54 54 54 53 52 68 66 66 70 69 71 67 61 67 68 71 70 68 66 70 71 64 66 63 67 69 68 70 68 69 57 61 59 67 68 65 68 69 69 69 68
54 54 54 54 54 54 54 54 54 53 55 70 73 74 68 63 68 66 67 69 68 71 72 71 69 67 66 66 67 68 68 68 67 64 64 63 60 56 52 64 64 58 66 68 70 73 71
54 54 54 54 54 54 54 54 54 54 54 64 69 66 62 61 67 68 70 69 67 68 65 70 68 64 66 72 71 71 70 68 68 66 66 59 57 57 52 56 44 63 75 74 71 73 75
54 54 54 54 54 54 54 54 54 54 54 62 70 66 62 57 65 67 69 67 68 68 65 65 69 67 69 66 59 56 57 58 61 66 65 64 58 52 48 50 57 63 69 69 67 67 76
54 54 54 53 54 54 53 54 54 54 54 60 70 68 63 59 62 66 63 66 62 62 64 66 72 69 65 60 57 48 49 57 57 62 67 65 61 54 51 45 43 60 72 75 67 60 71
53 54 54 53 53 54 53 53 54 54 54 57 65 64 62 58 66 66 61 59 66 64 60 64 65 61 63 56 52 51 52 62 53 54 56 56 56 50 49 46 54 67 73 71 44 47 66
53 53 53 53 53 53 53 53 54 54 54 55 65 66 61 58 63 67 67 60 62 62 56 62 61 61 58 51 53 54 54 59 57 60 57 56 52 51 53 48 44 67 68 59 62 66 66
53 53 53 53 53 53 53 53 53 54 54 54 59 66 66 57 61 66 67 69 67 66 61 61 59 59 63 56 59 58 55 59 56 50 64 53 59 54 51 53 62 66 62 63 66 67 67
MSLP
1021.71 1021.58 1021.23 1020.97 1020.80 1020.48 1020.18 1019.73 1019.31 1018.94 1018.38 1017.75 1017.46 1017.08 1016.63 1016.05 1015.69 1015.22 1014.62 1014.07 1013.90 1013.51 1013.24 1013.13 1013.13 1013.13 1012.34 1010.02 1006.23 1006.04 1006.28 1006.66 1006.67 1006.54 1005.72 1004.77 1004.01 1003.28 1002.64 1002.07 1001.52 1001.01 1000.56 1000.14 999.46 998.96 998.83
1021.90 1021.68 1021.34 1020.98 1020.79 1020.45 1019.98 1019.65 1019.09 1018.81 1018.28 1017.72 1017.40 1016.88 1016.34 1015.75 1015.37 1014.91 1014.28 1013.79 1013.32 1013.03 1012.92 1012.89 1013.04 1013.08 1011.45 1007.65 1004.53 1005.31 1005.43 1006.08 1005.46 1005.57 1004.67 1004.04 1003.49 1003.05 1002.38 1001.68 1001.00 1000.45 1000.37 999.96 999.60 999.06 998.90
1022.01 1021.62 1021.28 1021.14 1020.95 1020.50 1020.01 1019.36 1019.03 1018.60 1018.15 1017.73 1017.21 1016.74 1015.95 1015.55 1015.15 1014.64 1013.83 1013.38 1013.01 1012.78 1012.58 1012.70 1012.87 1012.37 1009.35 1005.76 1004.37 1004.55 1005.09 1004.93 1004.47 1004.29 1003.74 1003.37 1003.03 1002.76 1002.49 1001.92 1001.33 1000.62 1000.15 999.88 999.70 999.32 999.09
1022.16 1021.88 1021.50 1021.21 1020.70 1020.37 1019.96 1019.59 1019.05 1018.58 1018.22 1017.66 1017.14 1016.33 1015.73 1015.24 1014.62 1013.98 1013.52 1013.17 1012.70 1012.42 1012.36 1012.36 1012.40 1011.45 1007.08 1004.61 1004.56 1004.58 1004.51 1004.25 1004.23 1004.17 1004.11 1003.74 1003.40 1003.39 1002.69 1001.91 1001.10 1000.74 1000.45 999.90 999.17 999.08 999.23
1022.30 1021.97 1021.58 1021.14 1020.82 1020.42 1019.96 1019.52 1019.06 1018.63 1018.11 1017.56 1016.97 1016.15 1015.42 1014.63 1014.12 1013.70 1013.32 1012.78 1012.27 1012.11 1012.20 1012.40 1011.92 1010.14 1005.50 1005.21 1004.73 1004.22 1004.10 1003.88 1004.00 1004.08 1004.19 1004.06 1003.78 1003.31 1002.59 1002.07 1001.15 1000.65 1000.04 999.40 998.69 998.12 998.44
1022.35 1021.99 1021.60 1021.29 1020.91 1020.47 1020.16 1019.56 1019.04 1018.59 1018.06 1017.42 1016.56 1015.70 1014.84 1014.22 1013.89 1013.51 1012.90 1012.53 1011.98 1012.02 1011.87 1011.19 1009.79 1008.24 1004.88 1003.58 1003.75 1003.96 1004.12 1003.95 1003.86 1003.85 1003.94 1003.99 1003.47 1002.93 1002.22 1001.34 1000.25 999.33 999.17 998.54 998.06 997.36 997.88
1022.31 1022.01 1021.66 1021.37 1020.98 1020.61 1020.22 1019.68 1019.27 1018.67 1017.82 1016.80 1015.92 1015.31 1014.70 1013.89 1013.70 1013.38 1012.61 1011.71 1011.69 1010.73 1009.29 1006.77 1005.68 1004.68 1003.52 1003.56 1004.10 1004.04 1003.88 1003.89 1003.47 1003.70 1003.20 1003.16 1002.66 1001.63 1000.85 1000.41 999.96 999.69 999.16 998.36 997.64 997.35 997.82
1022.53 1022.20 1021.89 1021.56 1021.25 1020.85 1020.30 1019.58 1018.93 1018.26 1017.58 1016.75 1015.82 1015.14 1014.38 1013.58 1013.23 1013.02 1012.76 1009.98 1008.56 1007.84 1006.52 1004.92 1004.69 1004.01 1003.77 1003.36 1003.15 1003.25 1003.67 1003.74 1003.35 1002.94 1002.40 1002.03 1001.66 1000.90 1000.33 1000.26 1000.40 1000.35 1000.01 999.36 998.58 998.13 998.70
1022.76 1022.39 1021.99 1021.66 1021.31 1020.61 1020.09 1019.59 1018.97 1018.22 1017.49 1016.62 1015.72 1014.99 1014.35 1013.35 1012.45 1011.51 1009.70 1008.59 1007.85 1007.15 1006.10 1003.95 1003.46 1003.05 1003.16 1003.58 1002.65 1002.65 1003.42 1003.28 1002.66 1002.30 1001.53 1001.32 1000.66 1000.72 1000.95 1001.02 1001.02 1000.73 1000.31 999.68 999.29 998.71 998.76
1022.74 1022.47 1022.12 1021.81 1021.27 1020.80 1020.30 1019.69 1018.87 1017.95 1017.11 1016.48 1015.72 1014.80 1013.96 1013.12 1012.21 1008.85 1008.10 1007.77 1007.22 1007.38 1005.83 1003.21 1002.88 1002.47 1003.04 1002.77 1002.41 1002.00 1002.72 1002.76 1002.20 1001.76 1001.28 1000.87 1000.42 1000.55 1001.05 1000.96 1000.69 1000.45 1000.01 999.90 999.86 999.57 999.04
1022.99 1022.60 1022.19 1021.74 1021.24 1020.68 1020.04 1019.58 1018.81 1018.05 1017.29 1016.20 1015.27 1014.25 1013.69 1013.69 1011.85 1008.49 1008.03 1007.39 1007.57 1007.45 1004.40 1002.38 1001.83 1001.98 1002.07 1002.00 1001.90 1002.20 1002.38 1002.46 1002.15 1001.48 1001.37 1000.56 1000.43 1000.87 1000.88 1000.55 1000.43 1000.53 1000.21 1000.29 1000.43 1000.19 1000.00
1022.86 1022.52 1022.18 1021.80 1021.42 1020.78 1020.22 1019.58 1018.79 1017.86 1016.87 1015.68 1014.83 1014.30 1013.68 1011.73 1011.30 1008.13 1007.52 1007.51 1007.65 1006.57 1003.00 1002.08 1001.57 1001.37 1001.52 1001.36 1001.48 1001.92 1002.30 1002.65 1002.20 1001.88 1001.18 1001.01 1000.67 1000.76 1000.68 1000.45 1000.77 1001.02 1000.95 1001.13 1001.06 1000.69 999.98
1023.04 1022.72 1022.32 1021.90 1021.45 1020.84 1020.08 1019.36 1018.38 1017.53 1016.66 1015.61 1014.51 1013.96 1013.76 1011.40 1008.69 1007.86 1007.69 1007.19 1006.35 1004.23 1002.64 1001.71 1001.43 1001.52 1000.80 1001.01 1001.32 1001.55 1002.07 1002.60 1002.29 1001.86 1001.42 1001.04 1000.83 1000.62 1001.02 1000.89 1000.69 1001.09 1001.40 1001.09 1000.53 1000.08 999.12
1023.10 1022.71 1022.34 1021.89 1021.37 1020.71 1020.03 1019.29 1018.55 1017.65 1016.61 1015.48 1014.00 1013.47 1011.38 1010.29 1008.98 1008.13 1007.85 1006.92 1005.23 1002.56 1002.13 1002.27 1002.11 1001.83 1001.62 1001.47 1001.41 1001.55 1001.82 1001.95 1002.19 1002.46 1002.19 1001.64 1001.35 1001.89 1000.57 1000.93 1000.67 1000.66 1001.04 1000.87 1000.34 999.92 1000.07
1023.02 1022.69 1022.23 1021.84 1021.35 1021.02 1020.25 1019.27 1018.60 1017.70 1016.58 1015.54 1013.31 1011.11 1010.38 1008.89 1008.63 1008.54 1007.73 1005.82 1003.81 1002.79 1002.51 1002.81 1002.32 1002.25 1001.87 1002.24 1002.43 1002.18 1001.95 1002.71 1003.40 1003.55 1003.42 1002.70 1002.71 1002.09 1001.42 1001.28 1001.47 1000.93 1000.92 1001.00 1000.96 1000.55 1000.09
1022.87 1022.52 1022.31 1022.04 1021.67 1021.02 1020.23 1019.57 1018.81 1017.71 1016.37 1015.57 1013.80 1010.73 1008.35 1008.21 1008.39 1008.39 1007.40 1005.32 1004.17 1004.07 1004.10 1003.84 1003.04 1002.32 1001.88 1001.79 1002.70 1002.73 1002.38 1003.05 1003.69 1004.31 1004.38 1003.86 1003.25 1002.27 1001.84 1001.74 1001.63 1001.53 1001.66 1001.83 1001.68 1002.07 1001.58
1022.59 1022.53 1022.47 1022.14 1021.66 1021.17 1020.51 1019.98 1019.16 1017.92 1016.25 1014.54 1013.39 1009.55 1008.16 1007.98 1008.02 1007.85 1006.45 1004.47 1003.93 1004.63 1005.18 1004.62 1003.88 1003.34 1003.26 1002.84 1003.35 1002.95 1003.15 1004.42 1004.79 1004.96 1005.40 1004.94 1004.43 1003.73 1002.64 1001.81 1001.78 1002.09 1003.21 1005.70 1004.07 1004.03 1003.94
1022.63 1022.65 1022.50 1022.17 1021.80 1021.36 1020.85 1020.26 1019.47 1018.44 1016.61 1013.98 1012.47 1008.85 1007.84 1007.89 1007.78 1006.68 1005.61 1005.23 1005.26 1005.23 1005.74 1005.34 1005.33 1004.69 1004.35 1004.15 1004.30 1004.12 1004.08 1005.25 1006.21 1006.33 1006.26 1006.20 1006.02 1005.15 1003.95 1002.86 1002.75 1002.59 1003.15 1004.11 1004.22 1004.44 1005.16
1022.41 1022.45 1022.36 1022.16 1021.94 1021.61 1021.09 1020.47 1019.60 1019.02 1018.69 1017.23 1012.91 1009.39 1007.46 1007.86 1006.95 1005.95 1005.36 1005.62 1006.09 1005.95 1006.14 1005.86 1005.73 1005.64 1005.49 1005.47 1005.60 1005.46 1005.18 1006.53 1007.13 1007.11 1008.03 1008.17 1007.01 1006.24 1004.70 1003.66 1003.23 1003.13 1003.36 1004.05 1003.92 1004.46 1004.63
1022.12 1022.22 1022.27 1022.25 1022.09 1021.78 1021.30 1020.54 1019.63 1018.93 1018.91 1018.22 1013.48 1009.25 1007.41 1007.54 1007.23 1007.32 1006.59 1006.30 1006.42 1007.19 1007.18 1007.02 1006.67 1006.35 1006.69 1006.66 1006.40 1006.33 1006.06 1006.63 1007.71 1008.25 1009.22 1009.38 1008.64 1007.94 1006.66 1005.01 1005.27 1004.51 1005.08 1006.42 1004.75 1004.43 1004.07
1021.84 1022.01 1022.12 1022.19 1022.12 1021.82 1021.35 1020.67 1019.79 1018.81 1018.18 1017.85 1013.17 1010.45 1010.35 1008.19 1008.15 1008.37 1007.95 1007.35 1006.83 1006.99 1007.77 1007.83 1007.60 1007.48 1007.52 1007.46 1007.19 1006.75 1006.93 1007.13 1007.84 1008.72 1009.37 1009.84 1009.16 1008.55 1007.64 1006.68 1005.65 1004.91 1004.81 1005.05 1004.58 1004.18 1003.82
1021.57 1021.79 1021.94 1022.04 1021.94 1021.72 1021.38 1020.86 1020.21 1019.13 1017.62 1016.21 1013.95 1012.70 1011.69 1010.43 1009.70 1009.53 1008.85 1008.30 1007.82 1007.56 1007.71 1008.13 1008.40 1008.21 1008.25 1008.62 1008.64 1008.30 1008.22 1007.84 1007.82 1008.83 1009.21 1009.51 1009.65 1009.34 1008.31 1007.46 1006.51 1005.50 1004.92 1004.45 1003.96 1003.64 1003.28
1021.23 1021.46 1021.70 1021.79 1021.74 1021.66 1021.51 1021.13 1020.59 1019.71 1018.14 1016.09 1014.96 1014.05 1013.36 1011.47 1010.15 1009.70 1008.81 1008.50 1008.48 1008.64 1008.77 1009.23 1009.54 1009.68 1009.59 1010.27 1010.64 1010.43 1010.43 1010.17 1010.03 1009.89 1009.78 1009.98 1010.15 1010.03 1008.83 1008.01 1006.69 1005.23 1004.61 1003.84 1003.31 1002.98 1002.80
1020.75 1021.04 1021.34 1021.56 1021.61 1021.61 1021.55 1021.28 1020.88 1020.43 1020.23 1018.71 1016.77 1016.20 1014.43 1012.12 1010.74 1009.58 1009.15 1009.41 1009.73 1010.08 1010.26 1009.97 1010.74 1011.20 1011.98 1012.01 1011.70 1011.09 1010.76 1010.55 1010.28 1010.16 1010.60 1010.61 1010.84 1010.86 1009.64 1009.21 1007.16 1004.89 1004.16 1003.65 1003.10 1002.64 1002.42
1020.26 1020.63 1020.95 1021.29 1021.49 1021.50 1021.43 1021.33 1021.10 1020.73 1020.35 1019.17 1017.42 1016.63 1015.25 1013.36 1011.93 1010.68 1009.97 1010.34 1010.76 1010.95 1011.25 1011.34 1011.37 1012.44 1012.98 1012.79 1012.29 1011.31 1010.64 1010.27 1009.50 1009.31 1009.43 1010.27 1011.00 1010.95 1010.22 1008.88 1006.81 1005.33 1004.43 1003.75 1003.41 1003.21 1003.25
1019.78 1020.24 1020.63 1020.98 1021.21 1021.37 1021.36 1021.25 1021.09 1020.92 1020.51 1019.60 1017.59 1017.73 1016.70 1014.75 1012.60 1012.33 1011.80 1011.34 1011.31 1011.23 1011.05 1011.19 1011.91 1013.03 1013.71 1013.47 1012.38 1011.31 1009.92 1008.78 1007.75 1007.20 1007.80 1009.26 1010.28 1010.98 1010.42 1009.21 1007.12 1005.34 1004.54 1004.42 1004.59 1003.89 1004.65
1019.36 1019.85 1020.28 1020.67 1020.93 1021.15 1021.07 1021.15 1021.06 1021.05 1020.77 1020.30 1018.32 1018.43 1017.60 1015.64 1013.68 1013.28 1012.84 1012.81 1012.34 1012.02 1011.97 1011.70 1011.91 1013.33 1014.00 1013.22 1012.12 1010.99 1009.75 1009.09 1008.25 1007.71 1007.75 1008.65 1009.34 1009.53 1010.15 1009.57 1007.56 1006.43 1005.31 1005.93 1006.82 1008.57 1006.13
1018.78 1019.36 1019.94 1020.37 1020.71 1020.91 1021.05 1021.14 1021.11 1020.98 1020.87 1020.57 1018.29 1018.30 1018.28 1016.47 1014.63 1014.18 1013.88 1013.96 1013.53 1013.25 1012.96 1012.64 1012.76 1012.92 1013.41 1013.08 1012.10 1011.02 1009.45 1008.67 1008.14 1007.85 1007.69 1007.75 1008.26 1008.72 1009.03 1008.81 1007.65 1007.64 1006.74 1006.86 1007.78 1008.09 1008.33
1018.23 1018.91 1019.52 1020.05 1020.48 1020.76 1020.92 1021.02 1021.05 1020.99 1020.86 1020.95 1019.06 1018.16 1018.38 1017.90 1015.38 1015.37 1014.92 1014.68 1014.62 1014.44 1014.48 1013.67 1013.38 1013.45 1012.90 1012.72 1011.80 1011.07 1010.29 1009.25 1008.52 1007.59 1007.56 1007.72 1007.99 1008.27 1009.12 1008.50 1008.19 1008.50 1009.12 1009.38 1009.25 1008.76 1008.57
Wind_Speed
10 10 11 12 12 14 14 14 14 15 16 17 18 19 19 19 18 19 19 18 18 17 16 15 12 9 6 9 8 8 9 8 9 8 12 12 13 13 15 17 17 19 18 19 20 19 4
10 11 12 13 13 14 15 16 16 16 16 17 17 18 19 19 19 18 17 17 17 17 16 13 9 5 6 11 7 13 10 11 12 12 13 13 12 12 15 16 16 15 17 20 20 15 13
11 12 13 13 13 15 16 17 17 17 18 18 18 19 19 19 19 19 17 16 16 16 15 12 8 7 10 13 2 7 10 12 10 11 10 8 12 12 9 13 16 17 17 11 17 16 16
10 11 12 13 15 16 17 18 19 19 19 19 19 20 20 19 19 19 17 15 15 14 11 4 7 6 9 3 6 7 12 6 5 4 7 11 7 11 16 15 12 13 15 14 18 18 16
11 12 13 14 15 16 18 19 19 20 20 20 20 20 21 21 20 19 17 15 15 10 5 4 6 7 8 4 9 9 9 6 5 5 5 7 8 12 15 13 12 12 12 19 18 19 17
11 13 14 14 15 16 18 18 19 20 21 21 20 21 22 22 20 17 15 13 7 6 7 9 12 10 10 6 9 7 10 9 5 5 5 8 7 11 13 12 14 10 18 13 15 14 14
12 13 14 15 16 17 18 19 19 19 21 23 23 22 22 22 18 13 12 5 7 7 9 12 8 10 6 6 5 8 9 10 11 6 11 12 11 13 15 17 20 10 15 14 8 7 3
12 12 13 15 16 16 17 19 20 21 22 23 24 24 23 23 19 10 7 8 8 8 9 9 2 8 4 4 7 10 10 9 10 12 12 10 12 15 12 6 11 10 15 15 15 7 3
11 12 13 15 16 17 19 19 21 22 22 23 24 24 22 22 22 7 9 6 8 8 7 10 4 1 3 9 8 13 13 13 11 11 13 10 11 4 3 7 10 12 13 14 14 14 10
11 12 13 14 15 16 19 21 21 23 24 24 23 23 22 23 5 3 5 6 7 6 7 12 10 7 9 10 6 6 12 14 9 12 14 9 13 5 5 10 11 11 14 15 12 13 10
10 12 14 15 16 18 20 22 23 23 23 24 24 24 22 8 12 6 7 7 8 3 6 6 7 6 12 8 10 11 6 12 13 16 5 14 7 5 11 14 10 11 9 8 10 12 14
11 13 14 15 17 18 19 20 21 23 24 26 25 23 20 5 7 6 7 6 5 7 4 8 6 9 14 15 8 7 6 10 12 13 11 14 7 5 9 11 3 12 9 9 12 12 13
9 11 13 15 16 18 19 21 23 25 25 27 27 22 11 9 7 9 9 6 7 9 2 7 7 7 6 5 9 7 9 9 11 7 10 9 13 12 8 11 11 12 9 9 12 12 14
8 10 13 15 17 18 20 22 23 25 26 27 29 20 9 8 12 8 8 9 9 5 2 6 3 3 7 6 7 6 6 12 10 7 11 9 15 9 6 5 13 10 13 9 15 13 8
8 10 13 16 18 18 20 23 24 25 27 26 29 6 7 10 6 6 8 9 8 10 6 3 7 9 9 5 6 4 9 12 4 8 7 9 16 11 11 5 11 14 12 13 12 17 14
7 9 12 14 16 18 20 23 25 27 29 24 8 10 10 3 2 6 8 14 11 4 7 4 11 5 9 11 6 8 10 6 2 5 10 13 11 8 8 5 11 15 14 10 7 8 14
6 8 10 13 15 17 19 22 24 27 31 28 5 7 6 5 4 6 10 8 4 10 6 3 8 5 9 5 4 12 2 8 4 6 9 14 8 14 15 8 10 5 5 15 5 5 7
6 6 9 12 14 16 18 20 23 24 33 11 6 6 6 2 7 8 12 12 1 2 2 6 5 10 8 4 6 9 6 11 6 4 8 9 5 10 17 22 18 16 7 11 8 5 4
6 6 8 10 12 15 16 19 21 21 18 9 7 9 6 3 7 8 5 5 2 3 8 4 5 5 2 5 3 10 7 11 7 5 7 11 3 8 11 14 10 10 12 16 5 5 11
8 6 6 8 10 13 15 18 21 22 15 7 6 5 6 5 6 7 11 5 7 1 10 4 10 3 6 8 9 5 6 9 7 5 7 4 5 9 12 20 17 16 4 15 14 7 12
9 8 6 6 9 12 15 17 21 24 22 5 6 2 4 5 7 9 7 10 10 6 7 3 7 10 9 9 12 12 12 5 9 13 4 4 8 13 16 20 21 21 19 15 18 16 16
11 10 8 6 6 9 13 15 19 23 30 5 5 5 8 10 6 8 4 8 11 12 1 6 9 12 6 6 9 12 14 8 4 9 6 7 8 9 14 17 19 22 22 21 20 20 21
13 11 9 6 5 7 10 14 17 21 21 5 7 7 5 8 7 7 10 9 9 5 5 4 9 9 10 5 8 9 7 8 9 8 9 8 8 9 16 16 18 19 17 22 22 20 20
14 12 10 8 6 4 7 10 14 16 15 7 5 6 6 8 10 9 7 3 5 5 9 3 1 7 8 8 10 11 12 14 14 15 12 11 11 10 13 14 20 13 15 18 21 20 11
15 14 12 10 7 3 5 8 11 13 15 8 7 5 6 9 11 15 9 6 9 6 6 8 9 8 6 7 6 9 11 13 20 21 19 14 12 10 13 14 18 22 15 15 13 14 10
17 16 14 11 8 5 2 5 8 11 14 8 5 3 6 6 5 10 12 7 7 9 9 10 8 9 3 5 9 13 8 10 8 14 19 16 15 11 11 15 18 13 17 11 20 13 10
17 16 15 13 10 7 2 3 5 8 12 8 4 2 5 8 10 9 6 6 8 6 8 9 7 5 5 5 10 12 15 15 16 19 7 12 13 17 13 14 13 14 20 7 6 5 12
19 16 15 13 11 8 5 3 3 6 9 8 4 3 5 6 12 9 8 8 8 4 6 4 4 6 6 9 9 11 11 12 15 17 17 15 10 12 15 19 20 12 15 9 6 6 4
18 17 15 14 12 9 6 3 3 4 7 8 6 4 3 6 8 13 10 8 10 11 7 6 8 6 2 5 5 6 11 11 14 14 12 12 12 7 3 9 7 7 7 12 14 4 4
Wind_Direction
23 16 16 16 9 3 358 357 353 349 344 342 336 332 326 323 316 315 314 311 302 300 299 298 301 303 274 231 245 131 152 153 176 194 223 235 242 248 234 244 238 237 249 255 263 282 295
19 16 14 12 6 0 358 354 353 347 342 339 330 325 322 323 319 315 312 307 306 303 297 292 283 277 248 250 84 146 145 163 181 210 217 226 233 246 270 260 263 245 238 254 264 269 265
16 15 14 9 2 359 357 355 350 346 341 334 329 320 321 320 318 314 316 312 305 302 296 277 247 237 257 265 345 153 167 198 223 233 269 249 257 281 259 279 257 270 274 261 243 264 267
14 12 9 5 2 358 355 351 348 344 336 331 326 323 318 318 322 323 318 311 306 301 298 280 192 230 276 101 332 188 199 207 209 249 292 302 269 273 267 279 274 251 248 259 253 232 244
12 8 7 4 360 356 352 348 345 340 334 330 323 320 319 325 326 323 315 312 300 301 284 169 206 230 252 136 219 210 213 195 200 227 240 280 252 245 242 246 259 229 247 233 248 235 215
9 6 6 1 358 355 348 346 341 336 331 325 324 324 326 324 325 320 312 296 320 281 216 210 260 252 235 225 158 197 209 267 211 222 207 218 221 230 233 232 240 231 212 225 261 243 178
7 5 2 358 355 352 345 342 335 331 329 329 329 328 325 321 323 323 308 220 208 197 239 265 144 254 145 105 146 217 196 216 208 213 236 193 221 224 232 217 255 337 302 313 255 216 300
2 1 360 357 352 347 343 341 336 334 333 329 327 326 326 321 317 315 262 266 31 333 296 201 243 237 302 312 207 192 182 218 218 236 210 217 230 255 259 359 338 311 281 281 298 313 52
359 359 360 355 348 348 347 342 336 332 331 329 326 325 323 322 318 259 251 357 311 319 263 188 191 296 174 202 222 171 192 220 237 243 260 263 285 71 356 297 258 268 269 277 266 286 180
0 357 357 352 349 346 344 341 338 334 332 327 324 324 330 322 299 336 249 338 313 23 271 151 198 146 151 205 222 147 187 234 232 256 265 254 267 44 267 251 267 258 253 234 275 289 269
355 356 355 351 350 346 343 340 337 333 327 325 327 328 326 332 312 285 343 316 346 250 261 149 120 104 154 219 125 181 226 232 265 280 249 270 216 259 246 247 256 253 356 336 289 270 265
352 353 352 349 347 345 339 337 335 332 330 327 328 324 328 192 227 303 320 337 246 233 239 146 164 202 187 209 182 123 207 236 290 288 282 272 311 284 300 320 335 300 311 258 265 260 257
345 348 349 347 346 343 340 338 339 334 330 326 323 318 308 311 297 341 318 262 245 253 119 151 204 221 237 141 182 195 175 208 251 244 240 274 262 229 216 270 237 218 249 262 251 227 239
341 346 348 348 347 345 341 339 337 333 329 327 317 311 227 258 289 322 293 255 263 331 85 30 328 211 252 172 224 225 223 226 207 291 307 286 247 297 296 240 296 328 244 260 280 302 340
338 345 349 349 348 342 340 341 337 334 329 329 309 246 244 228 285 286 274 240 262 340 38 297 190 268 205 215 286 257 230 75 43 339 337 326 347 205 220 275 301 294 263 342 310 275 272
331 346 347 347 344 343 344 341 338 336 331 337 318 285 247 92 276 271 259 260 300 32 345 276 276 229 276 180 182 229 257 79 119 11 338 306 313 281 208 238 265 256 294 293 284 341 303
319 336 339 343 346 345 344 340 338 340 333 327 268 250 103 273 226 252 250 256 197 88 335 276 284 300 271 330 258 299 32 101 39 5 333 308 306 298 305 265 330 327 10 336 307 299 308
284 313 330 341 345 345 342 339 339 347 338 336 292 270 113 267 246 230 242 341 55 95 206 273 291 309 306 325 295 284 297 63 54 358 305 13 339 302 297 308 312 301 263 270 290 272 112
262 290 319 335 342 342 340 338 339 350 4 319 288 295 135 246 255 255 168 207 326 249 270 258 249 262 289 279 252 258 296 100 44 22 32 352 267 281 276 254 285 284 325 331 281 325 274
246 264 295 322 335 339 340 340 338 339 348 307 275 283 178 208 278 291 320 252 191 141 308 320 302 344 271 249 256 266 255 143 112 72 58 345 280 279 284 304 311 300 102 298 270 280 290
234 244 264 302 327 338 343 344 339 334 335 284 250 17 28 309 54 339 344 311 303 176 206 240 265 249 260 262 267 246 224 213 171 151 185 235 268 275 277 284 292 291 289 288 285 281 274
227 233 246 269 316 339 343 346 341 338 333 247 324 352 355 294 280 286 261 269 264 265 180 233 230 289 263 269 290 307 350 333 312 141 188 222 259 282 280 281 283 283 285 284 279 277 277
223 227 236 251 291 331 343 349 348 351 340 318 18 313 279 299 270 254 256 264 252 309 318 329 328 313 270 19 352 332 335 323 317 319 291 270 252 274 271 281 282 269 264 266 267 269 269
213 221 223 235 251 302 337 349 353 355 3 312 4 305 281 280 279 274 301 324 284 280 276 294 139 292 32 339 310 275 269 269 265 253 246 256 257 258 268 277 267 267 274 280 272 270 303
208 217 215 222 232 257 328 343 349 349 354 316 319 301 289 277 279 284 277 242 281 256 244 270 291 64 14 312 293 265 248 251 247 241 231 218 238 259 251 253 269 273 271 279 279 267 265
207 210 209 212 216 221 272 338 345 343 350 311 343 325 282 297 250 356 319 314 289 269 253 227 212 87 28 276 257 246 254 281 254 220 211 207 206 235 252 259 260 278 267 344 355 238 70
201 205 205 205 202 210 201 316 354 346 344 325 318 23 272 279 281 302 276 319 324 266 277 312 151 167 170 240 248 252 254 253 255 264 189 201 212 218 230 247 271 286 301 99 87 280 70
196 197 196 198 197 197 199 243 310 336 340 330 331 73 297 284 288 318 292 276 268 262 278 42 259 177 222 242 264 259 262 261 264 263 266 258 219 229 229 239 250 6 318 300 60 100 120
191 189 188 188 190 192 200 226 265 307 329 340 266 160 271 260 282 322 301 295 295 306 315 293 282 305 308 288 244 300 283 283 270 265 262 257 264 272 140 272 344 334 348 357 343 316 206